Regional Weather Roundup
Issued by NWS

Home | Current Version | Previous Version | Text Only | Print | Product List | Glossary Off
Versions: 1 2 3 4 5 6 7 8 9 10 11 12 13 14 15 16 17 18 19 20 21 22 23 24 25 26 27 28 29 30 31 32 33 34 35 36 37 38 39 40 41 42 43 44 45 46 47 48 49 50

532
ASUS43 KMPX 270510
RWRMN
WEATHER ROUNDUP FOR MINNESOTA
NATIONAL WEATHER SERVICE TWIN CITIES/CHANHASSEN MN
1200 AM CDT WED JUL 27 2016


NOTE: "FAIR" INDICATES FEW OR NO CLOUDS BELOW 12,000 FEET WITH NO
SIGNIFICANT WEATHER AND/OR OBSTRUCTIONS TO VISIBILITY. N/A MEANS
CURRENT SKY AND/OR WEATHER CONDITIONS ARE NOT AVAILABLE.

MNZ060>063-068>070-270600-
   Twin Cities Metro

CITY           SKY/WX    TMP DP  RH WIND       PRES   REMARKS
TWIN CITIES    MOCLDY    80  68  66 SW7       29.99S
ST PAUL        PTCLDY    80  68  66 CALM      29.99S
CRYSTAL        CLOUDY    77  64  64 CALM      29.97F
BLAINE         CLOUDY    77  63  61 CALM      29.99S
LAKEVILLE      CLOUDY    70  70 100 CALM      30.00S
EDEN PRAIRIE   MOCLDY    78  69  73 SW7       29.98F
LAKEVILLE      CLOUDY    70  70 100 CALM      30.00S
SOUTH ST PAUL  PTCLDY    80  67  64 CALM      29.99S
LAKE ELMO      FAIR      72  68  88 E3        30.01S
$$
MNZ001>005-007-008-013>017-022>024-027-028-270600-
   Northwest Minnesota

CITY           SKY/WX    TMP DP  RH WIND       PRES   REMARKS
BEMIDJI        CLOUDY    70  63  78 N6        30.01R
HALLOCK        CLOUDY    66  61  82 NE7       30.04R
ROSEAU         CLOUDY    66  59  77 N6        30.04R
WARROAD        MOCLDY    68  57  68 N7        30.04R
THIEF RVR FALL CLOUDY    70  59  68 NE12      30.02R
CROOKSTON      RAIN      68  64  88 NE8       30.01R
FOSSTON        CLOUDY    68  63  83 CALM      30.03R
DETROIT LAKES  CLOUDY    64  63  94 N10       30.02S
MOORHEAD       MOCLDY    68  64  88 NE3       30.00R
PARK RAPIDS    CLOUDY    72  69  90 CALM      30.00R
MAHNOMEN       TSTM      67  64  91 SW5       30.04R
$$
MNZ006-009>011-018-025>026-270600-
   North Central Minnesota

CITY           SKY/WX    TMP DP  RH WIND       PRES   REMARKS
BAUDETTE       MOCLDY    68  58  70 N7        30.02R
FLAG ISLAND    PTCLDY    70  55  60 N9        30.02S
INTL FALLS     CLOUDY    64  59  83 N5        30.00R
WASKISH        CLOUDY    66  61  82 CALM      30.01S
BIG FORK       CLOUDY    70  63  78 CALM      30.01R
LONGVILLE      CLOUDY    66  66 100 CALM      30.00R
GRAND RAPIDS   CLOUDY    68  65  90 N3        30.02R
CRANE LAKE     PTCLDY    57  57 100 CALM      30.01S
ORR            PTCLDY    64  61  88 CALM      29.98R
COOK           MOCLDY    66  63  88 CALM      30.00S
WALKER         MOCLDY    68  67  97 CALM      30.00R
$$
MNZ012-019>021-037-270600-
   Northeast Minnesota

CITY           SKY/WX    TMP DP  RH WIND       PRES   REMARKS
DULUTH         CLOUDY    72  67  84 N7        29.97F
ELY            MOCLDY    63  61  94 CALM      30.01R
HIBBING        MOCLDY    65  61  87 CALM      29.99R
EVELETH        CLOUDY    65  64  97 CALM      30.00S
DULUTH HARBOR  CLOUDY    75  66  73 CALM      29.94F
TWO HARBORS    MOCLDY    73  68  83 CALM      29.96S
SILVER BAY     MOCLDY    68  64  88 CALM      29.96S
GRAND MARAIS     N/A     69  52  54 CALM      29.94R
G MARAIS ARPRT CLOUDY    63  54  72 N8        30.02R
$$
MNZ029>031-032-039>041-046>048-054>057-064-270600-
   West Central Minnesota

CITY           SKY/WX    TMP DP  RH WIND       PRES   REMARKS
FERGUS FALLS   CLOUDY    72  63  73 NE5       29.99F
WHEATON        CLOUDY    70  66  88 SE5       30.00S
MORRIS         CLOUDY    70  66  88 NE5       29.97F
ALEXANDRIA     CLOUDY    72  68  87 SW6       30.00S
ELBOW LAKE     CLOUDY    72  66  82 NW8       29.99S
WADENA         CLOUDY    66  64  94 W6        29.99R
GLENWOOD       CLOUDY    72  68  88 W5        30.00S
APPLETON       CLOUDY    72  66  83 S3        29.97F
BENSON         CLOUDY    70  64  83 SE3       29.98F
ORTONVILLE     CLOUDY    72  64  78 CALM      29.97F
MADISON        LGT RAIN  72  66  83 CALM      29.98F
WILLMAR        FAIR      72  70  94 CALM      30.01R
$$
MNZ033>034-036-042>043-049>051-058-059-270600-
   Central Minnesota

CITY           SKY/WX    TMP DP  RH WIND       PRES   REMARKS
ST CLOUD       CLOUDY    68  65  90 NW6       29.99R
SAUK CENTRE    FAIR      67  66  94 CALM      29.99S
PAYNESVILLE    CLOUDY    69  69 100 CALM      30.00R
AITKIN         PTCLDY    64  59  82 CALM      29.98S
PINE RIVER     MOCLDY    64  64 100 CALM      30.02S
BRAINERD       CLOUDY    64  63  96 S6        30.00R
STAPLES        MOCLDY    64  61  88 CALM      29.99R
LONG PRAIRIE   FAIR      66  64  94 CALM      30.00S
LITTLE FALLS   CLOUDY    63  63 100 CALM      30.01R
LITCHFIELD     PTCLDY    75  73  94 CALM      30.00R
BUFFALO        MOCLDY    73  65  75 CALM      30.00R
MAPLE LAKE     CLOUDY    73  68  84 CALM      30.00S
HUTCHINSON     CLOUDY    74  72  92 W3        30.01R
$$
MNZ037-044-045-052-053-270600-
   East Central Minnesota

CITY           SKY/WX    TMP DP  RH WIND       PRES   REMARKS
PRINCETON      MOCLDY    72  63  73 CALM      29.99S
MORA           CLOUDY    64  63  94 CALM      30.01R
CAMBRIDGE      PTCLDY    73  61  64 SE5       29.98R
RUSH CITY      CLOUDY    68  62  82 CALM      29.99S
MOOSE LAKE     CLOUDY    64  63  94 CALM      29.97S
HINCKLEY       FAIR      66  64  94 CALM      29.99S
CLOQUET        CLOUDY    70  61  73 CALM      29.98S
MCGREGOR       CLOUDY    63  61  94 CALM      30.00R
$$
MNZ071>073-080-081-089-090-097-098-270600-
   Southwest Minnesota

CITY           SKY/WX    TMP DP  RH WIND       PRES   REMARKS
MONTEVIDEO     CLOUDY    72  66  83 CALM      30.00S
GRANITE FALLS  MOCLDY    73  67  83 CALM      30.00S
CANBY          MOCLDY    72  67  87 N5        30.00S
MARSHALL       CLOUDY    73  69  87 S3        29.99S
REDWOOD FALLS  PTCLDY    74  69  85 SW3       29.99R
OLIVIA         PTCLDY    73  70  88 SE3       29.99S
PIPESTONE      CLOUDY    73  66  78 S6        30.00S
WINDOM         CLOUDY    73  66  78 S3        30.02R
WORTHINGTON    CLOUDY    72  67  84 S10       30.02F
JACKSON        CLOUDY    72  64  78 S7        30.03S
TRACY          CLOUDY    73  69  88 SE3       30.00F
SLAYTON        MOCLDY    69  66  92 S5        30.02S
$$
MNZ065>067-074>077-082>085-091>093-270600-
   South Central Minnesota

CITY           SKY/WX    TMP DP  RH WIND       PRES   REMARKS
MANKATO        CLOUDY    73  66  78 S3        30.00F
NEW ULM        CLOUDY    73  70  88 CALM      30.00S
ST JAMES       CLOUDY    68  64  88 CALM      30.02R
FAIRMONT       PTCLDY    72  66  83 S7        30.01S
GLENCOE        CLOUDY    76  72  88 S5        29.99R
FARIBAULT      PTCLDY    70  68  94 CALM      30.02S
OWATONNA       CLEAR     73  66  78 S5        30.01F
WASECA         CLOUDY    72  68  88 SW3       30.02S
ALBERT LEA     MOCLDY    75  66  73 S7        30.01F
$$
MNZ078>079-086>088-094>096-270600-
   Southeast Minnesota

CITY           SKY/WX    TMP DP  RH WIND       PRES   REMARKS
ROCHESTER      CLEAR     71  68  90 SW7       30.03F
RED WING       PTCLDY    72  68  88 CALM      29.98S
STANTON        CLEAR     70  66  88 S5        29.99F
DODGE CENTER   CLEAR     72  66  83 SW9       30.02F
WINONA         CLEAR     77  68  73 CALM      29.99F
AUSTIN         CLEAR     70  66  88 CALM      30.02F
PRESTON        CLEAR     69  66  89 SW6       30.04F
$$
ABBREVIATIONS USED IN REMARKS
   TC - TEMPERATURES IN CELSIUS
  WCI - WIND CHILL INDEX
   HX - HEAT INDEX
  VSB - VISIBILITY
$$




USA.gov is the U.S. government's official web portal to all federal, state and local government web resources and services.